User: anonymous   Login
Location: Unspecified
(0.0000°N, 0.0000°E)
Time: 11:33:09
(UTC+00:00)
Language:

BREEZE-M R/B - Orbit

View from above orbital plane
View from above orbital plane
View from above satellite
View from above satellite

Ground track
Ground track

The orbit data is extracted from the following two-line orbital elements,

1 39173U 13026B   21022.38392048  .00000043  00000-0  00000-0 0  9996
2 39173  23.6630 130.3499 7639163 262.0428  14.3662  1.10515163 30461
Epoch (UTC): 22 January 2021 09:12:50
Eccentricity: 0.7639163
inclination: 23.6630°
perigee height: 2951 km
apogee height: 63326 km
right ascension of ascending node: 130.3499°
argument of perigee: 262.0428°
revolutions per day: 1.10515163
mean anomaly at epoch: 14.3662°
orbit number at epoch: 3046

The dashed part of the orbit path shows where the satellite is in the earth's shadow,  

DLR